Regional Weather Roundup
Issued by NWS

Home | Current Version | Previous Version | Text Only | Print | Product List | Glossary Off
Versions: 1 2 3 4 5 6 7 8 9 10 11 12 13 14 15 16 17 18 19 20 21 22 23 24 25 26 27 28 29 30 31 32 33 34 35 36 37 38 39 40 41 42 43 44 45 46 47 48 49 50

000
ASUS45 KBOI 191510
RWRID
WEATHER ROUNDUP FOR IDAHO
NATIONAL WEATHER SERVICE BOISE ID
800 AM MST FRI DEC 19 2014

NOTE: "FAIR" INDICATES FEW OR NO CLOUDS BELOW 12000 FEET
WITH NO SIGNIFICANT WEATHER AND/OR OBSTRUCTIONS TO VISIBILITY

IDZ012-014-191600-
SOUTHWEST IDAHO


CITY           SKY/WX    TMP DP  RH WIND       PRES   REMARKS
BOISE          CLOUDY    44  33  65 SE8       30.03S
CALDWELL       CLOUDY    39  28  65 E10       30.05S WCI  32
MOUNTAIN HOME  CLOUDY    39  31  73 SE16      30.06R WCI  30
$$

IDZ016-017-191600-
SOUTHCENTRAL IDAHO


CITY           SKY/WX    TMP DP  RH WIND       PRES   REMARKS
BURLEY         CLOUDY    39  25  57 S17       30.07F WCI  30
JEROME         MOCLDY    34  28  79 NE9       30.09R WCI  27
TWIN FALLS     CLOUDY    43  25  49 S15       30.06S
$$

IDZ019>023-191600-
SOUTHEAST IDAHO


CITY           SKY/WX    TMP DP  RH WIND       PRES   REMARKS
IDAHO FALLS    CLOUDY    31  27  85 SW5       30.13R WCI  26
POCATELLO      MOCLDY    38  29  70 S15       30.12S WCI  29
REXBURG        LGT SNOW  31  30  96 CALM      30.12F FOG
$$

IDZ006-010-011-018-031-032-191600-
CENTRAL IDAHO MOUNTAINS


CITY           SKY/WX    TMP DP  RH WIND       PRES   REMARKS
MCCALL         FLURRIES  33  30  88 SE7       29.97F WCI  27
HAILEY         CLOUDY    30  30 100 NW5       30.11F WCI  25
STANLEY          N/A     32  24  72 SE6       30.02S WCI  26
SALMON         CLOUDY    27  21  80 CALM      30.05F
CHALLIS        CLOUDY    26  24  92 CALM      30.06S
$$

IDZ002-004-006-007-026-191600-
NORTHERN IDAHO


CITY           SKY/WX    TMP DP  RH WIND       PRES   REMARKS
LEWISTON       LGT RAIN  44  39  82 SE7       29.92S
LOWELL           N/A     37  35  92 NW3       29.99F
COEUR D`ALENE  CLOUDY    37  36  93 NE3       29.87F
MULLAN PASS    SNOW      32  28  85 MISG      29.84S VSB 1/4
$$


USA.gov is the U.S. government's official web portal to all federal, state and local government web resources and services.